Location: Peebles
(55.6412°N, 3.1714°W)
Time: 11:10:39
(UTC+01:00)

IRIDIUM 33 DEB - Pass Details

Date: 03 July 2022
Orbit: 580 x 634 km, 86.4° (Epoch: 16 August)

Event Time Altitude Azimuth Distance (km) Brightness Sun altitude
Rises 03:08:28 0° 354° (N) 2,817 ? -7.9°
Reaches altitude 10° 03:10:39 10° 353° (N) 1,913 ? -7.7°
Maximum altitude 03:14:50 79° 268° (W) 603 ? -7.5°
Drops below altitude 10° 03:19:02 10° 181° (S) 1,913 ? -7.2°
Enters shadow 03:19:49 - 181° (S) 2,234 ? -7.2°
